Weather History for Calgary Springbank, AB

Change the Weather History Date:

Saturday, December 31, 2011

  Actual Average Record
Temperature  
Mean Temperature 20 °F -  
Max Temperature 29 °F 25 °F 55 °F (1997)
Min Temperature 8 °F 6 °F -16 °F (2010)
Degree Days  
Heating Degree Days 46    
Moisture  
Dew Point 5 °F    
Average Humidity 52    
Maximum Humidity 80    
Minimum Humidity 21    
Precipitation  
Precipitation 0.00 in - - ()
Sea Level Pressure  
Sea Level Pressure 30.21 in    
Wind  
Wind Speed 9 mph ()    
Max Wind Speed 22 mph    
Max Gust Speed 30 mph    
Visibility 15.6 miles    
Events      
Averages and records for this station are not official NWS values.
T = Trace of Precipitation, MM = Missing Value Source: Averaged Metar Reports

Daily Weather History Graph

Daily Weather History Graph

Search for Another Location

Airport:

Trip Planner

Search our weather history database for the weather conditions in past years. The results will help you decide how hot, cold, wet, or windy it might be!

Date:

Astronomy

Dec. 31, 2011 Rise Set
Actual Time 8:41 AM MST 4:39 PM MST
Civil Twilight 8:01 AM MST 5:19 PM MST
Nautical Twilight 7:19 AM MST 6:01 PM MST
Astronomical Twilight 6:38 AM MST 6:42 PM MST
Moon 11:36 AM MST (12/31) 12:07 AM MST (12/31)
Length of Visible Light 9h 17m
Length of Day
7h 58m
Waxing Crescent, 45% of the Moon is Illuminated
Dec 31
Waxing Crescent
Dec 31
First Quarter
Jan 9
Full
Jan 16
Last Quarter
Jan 23
New

Hourly Weather History & Observations

Time (MST) Temp. Windchill Dew Point Humidity Pressure Visibility Wind Dir Wind Speed Gust Speed Precip Events Conditions
5:00 AM 24 °F - 17 °F 64% 29.92 in 15 mi NNW 15.0 mph - -   Scattered Clouds
5:00 AM 24.8 °F 13.4 °F 17.6 °F 74% 29.92 in 15.0 mi NNW 12.7 mph 24.2 mph N/A   Scattered Clouds
6:00 AM 23.0 °F 13.9 °F 15.8 °F 74% 29.95 in 15.0 mi North 8.1 mph - N/A   Partly Cloudy
7:00 AM 17.6 °F 10.7 °F 10.4 °F 73% 29.99 in 15.0 mi West 4.6 mph - N/A   Partly Cloudy
8:00 AM 17.6 °F - 10.4 °F 73% 30.06 in 20.0 mi Calm Calm - N/A   Partly Cloudy
9:00 AM 17.6 °F 10.7 °F 10.4 °F 73% 30.10 in 30.0 mi South 4.6 mph - N/A   Scattered Clouds
10:00 AM 21.2 °F 10.1 °F 15.8 °F 80% 30.14 in 30.0 mi SW 10.4 mph - N/A   Partly Cloudy
11:00 AM 28 °F - 4 °F 21% 30.14 in 28 mi West 11.5 mph - -   Scattered Clouds
12:00 PM 30.2 °F 18.5 °F -0.4 °F 27% 30.15 in 30.0 mi West 17.3 mph - N/A   Partly Cloudy
1:00 PM 30.2 °F 17.1 °F -0.4 °F 27% 30.16 in 30.0 mi West 21.9 mph 28.8 mph N/A   Partly Cloudy
2:00 PM 28.4 °F 14.7 °F -0.4 °F 29% 30.19 in 30.0 mi West 21.9 mph 28.8 mph N/A   Scattered Clouds
3:00 PM 28.4 °F 15.1 °F -0.4 °F 29% 30.22 in 30.0 mi WNW 20.7 mph 29.9 mph N/A   Scattered Clouds
4:00 PM 26.6 °F 19.1 °F -0.4 °F 31% 30.27 in 30.0 mi North 6.9 mph 18.4 mph N/A   Scattered Clouds
5:00 PM 18 °F - 2 °F 36% 30.35 in 28 mi East 10.4 mph - -   Scattered Clouds
5:00 PM 17.6 °F 5.7 °F 3.2 °F 53% 30.35 in 30.0 mi East 10.4 mph - N/A   Scattered Clouds
6:00 PM 17.6 °F 9.3 °F 1.4 °F 49% 30.38 in 30.0 mi East 5.8 mph - N/A   Partly Cloudy
7:00 PM 12.2 °F - -4.0 °F 48% 30.41 in 15.0 mi Calm Calm - N/A   Partly Cloudy
8:00 PM 12.2 °F 6.1 °F -2.2 °F 53% 30.48 in 15.0 mi SW 3.5 mph - N/A   Clear
9:00 PM 10.4 °F 0.8 °F -0.4 °F 62% 30.50 in 15.0 mi SW 5.8 mph - N/A   Clear
10:00 PM 8.6 °F - -4.0 °F 57% 30.52 in 15.0 mi Calm Calm - N/A   Clear